| time (UTC) | temp F | wind direction | speed MPH | gust MPH | rain 1hr in | rain 24hr in | rain mn in | humidity % | barometer mb |
| 20260509203516 | 84 | 80 | 4.0 | 8.0 | 0.00 | 0.60 | 0.00 | 30 | 1010.4 |
| 20260509203030 | 84 | 155 | 4.0 | 12.0 | 0.00 | 0.60 | 0.00 | 29 | 1010.5 |
| 20260509202507 | 84 | 76 | 7.0 | 12.0 | 0.00 | 0.60 | 0.00 | 36 | 1010.4 |
| 20260509202011 | 83 | 103 | 3.0 | 10.0 | 0.00 | 0.60 | 0.00 | 31 | 1010.4 |
| 20260509201518 | 84 | 195 | 3.0 | 8.0 | 0.00 | 0.60 | 0.00 | 34 | 1010.4 |
| 20260509201010 | 84 | 119 | 5.0 | 8.0 | 0.00 | 0.60 | 0.00 | 32 | 1010.6 |
| 20260509200515 | 84 | 149 | 2.0 | 8.0 | 0.00 | 0.60 | 0.00 | 32 | 1010.6 |
| 20260509200016 | 84 | 149 | 4.0 | 8.0 | 0.00 | 0.60 | 0.00 | 32 | 1010.7 |
| 20260509195511 | 84 | 115 | 1.0 | 7.0 | 0.00 | 0.60 | 0.00 | 37 | 1010.9 |
| 20260509195006 | 84 | 182 | 4.0 | 7.0 | 0.00 | 0.60 | 0.00 | 36 | 1010.8 |
| 20260509194515 | 84 | 156 | 3.0 | 6.0 | 0.00 | 0.60 | 0.00 | 36 | 1010.9 |
| 20260509194002 | 83 | 158 | 1.0 | 6.0 | 0.00 | 0.60 | 0.00 | 38 | 1011.0 |
| 20260509193507 | 83 | 179 | 2.0 | 9.0 | 0.00 | 0.60 | 0.00 | 36 | 1011.1 |
| 20260509193013 | 83 | 116 | 3.0 | 9.0 | 0.00 | 0.60 | 0.00 | 33 | 1011.1 |
| 20260509192503 | 83 | 92 | 5.0 | 9.0 | 0.00 | 0.60 | 0.00 | 28 | 1011.2 |
| 20260509192007 | 83 | 124 | 4.0 | 9.0 | 0.00 | 0.60 | 0.00 | 30 | 1011.2 |
| 20260509191510 | 83 | 99 | 1.0 | 8.0 | 0.00 | 0.60 | 0.00 | 32 | 1011.1 |
| 20260509191007 | 83 | 122 | 2.0 | 8.0 | 0.00 | 0.60 | 0.00 | 40 | 1011.1 |
| 20260509190507 | 82 | 123 | 2.0 | 9.0 | 0.00 | 0.60 | 0.00 | 39 | 1011.1 |
| 20260509190006 | 82 | 156 | 3.0 | 9.0 | 0.00 | 0.60 | 0.00 | 36 | 1011.1 |
| 20260509185503 | 82 | 129 | 1.0 | 6.0 | 0.00 | 0.60 | 0.00 | 43 | 1011.1 |
| 20260509185007 | 81 | 196 | 1.0 | 7.0 | 0.00 | 0.60 | 0.00 | 46 | 1011.1 |
| 20260509184509 | 81 | 196 | 2.0 | 7.0 | 0.00 | 0.60 | 0.00 | 42 | 1011.2 |
| 20260509184008 | 81 | 155 | 4.0 | 7.0 | 0.00 | 0.60 | 0.00 | 46 | 1011.2 |
| 20260509183507 | 82 | 212 | 2.0 | 7.0 | 0.00 | 0.60 | 0.00 | 46 | 1011.2 |
| 20260509183004 | 81 | 101 | 4.0 | 7.0 | 0.00 | 0.60 | 0.00 | 41 | 1011.3 |
| 20260509182506 | 81 | 127 | 3.0 | 7.0 | 0.00 | 0.60 | 0.00 | 47 | 1011.4 |
| 20260509182010 | 81 | 108 | 4.0 | 8.0 | 0.00 | 0.60 | 0.00 | 48 | 1011.4 |
| 20260509181504 | 80 | 131 | 2.0 | 8.0 | 0.00 | 0.60 | 0.00 | 52 | 1011.4 |
| 20260509181008 | 81 | 230 | 3.0 | 8.0 | 0.00 | 0.60 | 0.00 | 52 | 1011.4 |
| 20260509180506 | 81 | 139 | 2.0 | 7.0 | 0.00 | 0.60 | 0.00 | 54 | 1011.4 |
| 20260509180021 | 80 | 168 | 1.0 | 7.0 | 0.00 | 0.60 | 0.00 | 47 | 1011.5 |
| 20260509175504 | 80 | 142 | 3.0 | 7.0 | 0.00 | 0.60 | 0.00 | 51 | 1011.6 |
| 20260509175004 | 79 | 98 | 2.0 | 7.0 | 0.00 | 0.60 | 0.00 | 52 | 1011.7 |
| 20260509174541 | 79 | 156 | 1.0 | 7.0 | 0.00 | 0.60 | 0.00 | 52 | 1011.7 |
| 20260509174007 | 78 | 200 | 2.0 | 7.0 | 0.00 | 0.60 | 0.00 | 52 | 1011.8 |
| 20260509173504 | 79 | 152 | 2.0 | 6.0 | 0.00 | 0.60 | 0.00 | 56 | 1011.8 |
| 20260509173016 | 78 | 206 | 2.0 | 11.0 | 0.00 | 0.60 | 0.00 | 51 | 1011.8 |
| 20260509172510 | 77 | 178 | 1.0 | 11.0 | 0.00 | 0.60 | 0.00 | 53 | 1011.9 |
| 20260509172011 | 77 | 195 | 4.0 | 7.0 | 0.00 | 0.60 | 0.00 | 56 | 1012.0 |
| 20260509171510 | 77 | 230 | 2.0 | 7.0 | 0.00 | 0.60 | 0.00 | 63 | 1012.1 |
| 20260509171010 | 77 | 147 | 2.0 | 7.0 | 0.00 | 0.60 | 0.00 | 60 | 1012.2 |
| 20260509170507 | 77 | 177 | 1.0 | 5.0 | 0.00 | 0.60 | 0.00 | 63 | 1012.1 |
| 20260509170012 | 76 | 126 | 2.0 | 5.0 | 0.00 | 0.60 | 0.00 | 66 | 1012.1 |
| 20260509165504 | 75 | 181 | 2.0 | 5.0 | 0.00 | 0.60 | 0.00 | 69 | 1012.1 |
| 20260509165009 | 76 | 160 | 2.0 | 9.0 | 0.00 | 0.60 | 0.00 | 67 | 1012.3 |
| 20260509164509 | 75 | 153 | 1.0 | 9.0 | 0.00 | 0.60 | 0.00 | 67 | 1012.3 |
| 20260509164011 | 74 | 165 | 5.0 | 9.0 | 0.00 | 0.60 | 0.00 | 68 | 1012.2 |
| 20260509163504 | 74 | 171 | 2.0 | 8.0 | 0.00 | 0.60 | 0.00 | 69 | 1012.2 |
| 20260509163006 | 74 | 146 | 2.0 | 8.0 | 0.00 | 0.60 | 0.00 | 69 | 1012.2 |
| 20260509162513 | 74 | 175 | 2.0 | 7.0 | 0.00 | 0.60 | 0.00 | 71 | 1012.2 |
| 20260509162004 | 74 | 185 | 2.0 | 6.0 | 0.00 | 0.60 | 0.00 | 71 | 1012.1 |
| 20260509161503 | 74 | 165 | 2.0 | 6.0 | 0.00 | 0.60 | 0.00 | 71 | 1012.0 |
| 20260509161012 | 73 | 160 | 4.0 | 5.0 | 0.00 | 0.60 | 0.00 | 70 | 1012.1 |
| 20260509160507 | 73 | 155 | 2.0 | 4.0 | 0.00 | 0.60 | 0.00 | 72 | 1012.0 |
| 20260509160022 | 72 | 187 | 3.0 | 4.0 | 0.00 | 0.60 | 0.00 | 75 | 1012.0 |
| 20260509155504 | 72 | 137 | 2.0 | 4.0 | 0.00 | 0.60 | 0.00 | 76 | 1012.0 |
| 20260509155004 | 71 | 201 | 2.0 | 4.0 | 0.00 | 0.60 | 0.00 | 77 | 1011.9 |
| 20260509154519 | 71 | 174 | 2.0 | 3.0 | 0.00 | 0.60 | 0.00 | 80 | 1011.9 |
| 20260509154010 | 71 | 203 | 2.0 | 3.0 | 0.00 | 0.60 | 0.00 | 77 | 1011.9 |
| 20260509153505 | 71 | 165 | 1.0 | 3.0 | 0.00 | 0.60 | 0.00 | 78 | 1011.8 |
| 20260509153033 | 70 | 176 | 1.0 | 4.0 | 0.00 | 0.60 | 0.00 | 78 | 1011.8 |
| 20260509152505 | 70 | 162 | 1.0 | 4.0 | 0.00 | 0.60 | 0.00 | 80 | 1011.9 |
| 20260509152013 | 69 | 164 | 2.0 | 7.0 | 0.00 | 0.60 | 0.00 | 80 | 1011.9 |
| 20260509151518 | 69 | 123 | 1.0 | 7.0 | 0.00 | 0.60 | 0.00 | 80 | 1011.9 |
| 20260509151003 | 68 | 158 | 2.0 | 6.0 | 0.00 | 0.60 | 0.00 | 84 | 1012.0 |
| 20260509150511 | 67 | 167 | 1.0 | 3.0 | 0.00 | 0.60 | 0.00 | 83 | 1012.0 |
| 20260509150022 | 67 | 170 | 0.0 | 3.0 | 0.00 | 0.60 | 0.00 | 84 | 1011.9 |
| 20260509145503 | 66 | 189 | 0.0 | 3.0 | 0.00 | 0.60 | 0.00 | 85 | 1011.9 |
| 20260509145007 | 66 | 178 | 1.0 | 4.0 | 0.00 | 0.60 | 0.00 | 86 | 1012.0 |
| 20260509144512 | 65 | 185 | 1.0 | 4.0 | 0.00 | 0.60 | 0.00 | 87 | 1011.9 |
| 20260509144008 | 65 | 199 | 3.0 | 4.0 | 0.00 | 0.60 | 0.00 | 88 | 1011.9 |
| 20260509143508 | 65 | 148 | 1.0 | 4.0 | 0.00 | 0.60 | 0.00 | 90 | 1011.9 |
| 20260509143010 | 64 | 149 | 2.0 | 6.0 | 0.00 | 0.60 | 0.00 | 91 | 1011.9 |
| 20260509142507 | 64 | 206 | 3.0 | 6.0 | 0.00 | 0.60 | 0.00 | 91 | 1011.9 |
| 20260509142007 | 64 | 156 | 1.0 | 5.0 | 0.00 | 0.60 | 0.00 | 92 | 1011.9 |
| 20260509141526 | 64 | 169 | 2.0 | 5.0 | 0.00 | 0.60 | 0.00 | 93 | 1012.0 |
| 20260509141011 | 63 | 176 | 1.0 | 3.0 | 0.00 | 0.60 | 0.00 | 93 | 1011.9 |
| 20260509140507 | 63 | 188 | 1.0 | 3.0 | 0.00 | 0.60 | 0.00 | 93 | 1011.9 |
| 20260509140033 | 62 | 194 | 1.0 | 2.0 | 0.00 | 0.60 | 0.00 | 94 | 1011.9 |
| 20260509135508 | 62 | 202 | 1.0 | 2.0 | 0.00 | 0.60 | 0.00 | 94 | 1011.8 |
| 20260509135009 | 61 | 203 | 1.0 | 2.0 | 0.00 | 0.60 | 0.00 | 94 | 1011.8 |
| 20260509134523 | 61 | 203 | 0.0 | 3.0 | 0.00 | 0.60 | 0.00 | 94 | 1011.7 |
| 20260509134006 | 61 | 204 | 0.0 | 4.0 | 0.00 | 0.60 | 0.00 | 94 | 1011.5 |
| 20260509133507 | 61 | 158 | 0.0 | 4.0 | 0.00 | 0.60 | 0.00 | 94 | 1011.3 |
| 20260509133022 | 60 | 164 | 2.0 | 4.0 | 0.00 | 0.60 | 0.00 | 94 | 1011.2 |
| 20260509132508 | 60 | 81 | 1.0 | 2.0 | 0.00 | 0.60 | 0.00 | 94 | 1011.1 |
| 20260509132011 | 60 | 81 | 1.0 | 2.0 | 0.00 | 0.60 | 0.00 | 94 | 1011.1 |
| 20260509131523 | 59 | 150 | 0.0 | 2.0 | 0.00 | 0.60 | 0.00 | 94 | 1011.1 |
| 20260509131007 | 58 | 53 | 0.0 | 0.0 | 0.00 | 0.60 | 0.00 | 94 | 1011.1 |
| 20260509130507 | 58 | 73 | 0.0 | 0.0 | 0.00 | 0.60 | 0.00 | 94 | 1011.1 |
| 20260509130016 | 57 | 73 | 0.0 | 0.0 | 0.00 | 0.60 | 0.00 | 94 | 1011.2 |
| 20260509125516 | 57 | 100 | 0.0 | 1.0 | 0.00 | 0.60 | 0.00 | 94 | 1011.1 |
| 20260509125007 | 56 | 215 | 0.0 | 2.0 | 0.00 | 0.60 | 0.00 | 94 | 1010.9 |
| 20260509124515 | 56 | 215 | 0.0 | 2.0 | 0.00 | 0.60 | 0.00 | 94 | 1010.9 |
| 20260509124007 | 56 | 192 | 0.0 | 0.0 | 0.00 | 0.60 | 0.00 | 94 | 1010.9 |
| 20260509123507 | 55 | 192 | 0.0 | 2.0 | 0.00 | 0.60 | 0.00 | 93 | 1010.9 |
| 20260509123012 | 55 | 192 | 0.0 | 2.0 | 0.00 | 0.60 | 0.00 | 93 | 1010.9 |
| 20260509122510 | 54 | 192 | 0.0 | 2.0 | 0.00 | 0.60 | 0.00 | 93 | 1010.8 |
| 20260509122006 | 54 | 192 | 1.0 | 2.0 | 0.00 | 0.60 | 0.00 | 93 | 1010.9 |
| 20260509121528 | 54 | 226 | 0.0 | 2.0 | 0.00 | 0.60 | 0.00 | 93 | 1010.8 |
| 20260509121012 | 53 | 226 | 0.0 | 0.0 | 0.00 | 0.60 | 0.00 | 93 | 1010.8 |
| 20260509120507 | 53 | 226 | 0.0 | 0.0 | 0.00 | 0.60 | 0.00 | 93 | 1010.7 |
| 20260509120030 | 53 | 229 | 0.0 | 2.0 | 0.00 | 0.60 | 0.00 | 93 | 1010.6 |
| 20260509115507 | 53 | 229 | 0.0 | 2.0 | 0.00 | 0.60 | 0.00 | 93 | 1010.6 |
| 20260509115009 | 53 | 210 | 0.0 | 1.0 | 0.00 | 0.60 | 0.00 | 93 | 1010.5 |
| 20260509114526 | 53 | 292 | 0.0 | 1.0 | 0.00 | 0.60 | 0.00 | 93 | 1010.5 |
| 20260509114010 | 53 | 254 | 0.0 | 0.0 | 0.00 | 0.60 | 0.00 | 93 | 1010.6 |
| 20260509113510 | 53 | 227 | 0.0 | 0.0 | 0.00 | 0.60 | 0.00 | 93 | 1010.6 |
| 20260509113026 | 53 | 233 | 0.0 | 0.0 | 0.00 | 0.60 | 0.00 | 93 | 1010.6 |
| 20260509112506 | 53 | 233 | 0.0 | 0.0 | 0.00 | 0.60 | 0.00 | 93 | 1010.4 |
| 20260509112011 | 53 | 233 | 0.0 | 0.0 | 0.00 | 0.60 | 0.00 | 93 | 1010.4 |
| 20260509111521 | 53 | 233 | 0.0 | 0.0 | 0.00 | 0.60 | 0.00 | 93 | 1010.4 |
| 20260509111007 | 53 | 233 | 0.0 | 0.0 | 0.00 | 0.60 | 0.00 | 93 | 1010.4 |
| 20260509110509 | 53 | 233 | 0.0 | 0.0 | 0.00 | 0.60 | 0.00 | 93 | 1010.3 |
| 20260509110020 | 54 | 233 | 0.0 | 0.0 | 0.00 | 0.60 | 0.00 | 93 | 1010.3 |
| 20260509105507 | 54 | 233 | 0.0 | 0.0 | 0.00 | 0.60 | 0.00 | 93 | 1010.3 |
| 20260509105007 | 54 | 233 | 0.0 | 0.0 | 0.00 | 0.60 | 0.00 | 93 | 1010.2 |
| 20260509104518 | 54 | 233 | 0.0 | 0.0 | 0.00 | 0.60 | 0.00 | 93 | 1010.2 |
| 20260509104004 | 54 | 233 | 0.0 | 0.0 | 0.00 | 0.60 | 0.00 | 93 | 1010.3 |
| 20260509103503 | 54 | 233 | 0.0 | 0.0 | 0.00 | 0.60 | 0.00 | 93 | 1010.3 |
| 20260509103012 | 54 | 233 | 0.0 | 0.0 | 0.00 | 0.60 | 0.00 | 93 | 1010.3 |
| 20260509102502 | 54 | 233 | 0.0 | 0.0 | 0.00 | 0.60 | 0.00 | 93 | 1010.2 |
| 20260509102010 | 54 | 233 | 0.0 | 0.0 | 0.00 | 0.60 | 0.00 | 93 | 1010.2 |
| 20260509101513 | 54 | 233 | 0.0 | 0.0 | 0.00 | 0.60 | 0.00 | 93 | 1010.2 |
| 20260509101003 | 54 | 233 | 0.0 | 0.0 | 0.00 | 0.60 | 0.00 | 93 | 1010.2 |
| 20260509100507 | 55 | 233 | 0.0 | 0.0 | 0.00 | 0.60 | 0.00 | 93 | 1010.3 |
| 20260509100009 | 55 | 233 | 0.0 | 0.0 | 0.00 | 0.60 | 0.00 | 93 | 1010.3 |
| 20260509095506 | 55 | 233 | 0.0 | 0.0 | 0.00 | 0.60 | 0.00 | 93 | 1010.3 |
| 20260509095007 | 55 | 233 | 0.0 | 0.0 | 0.00 | 0.60 | 0.00 | 93 | 1010.4 |
| 20260509094506 | 55 | 233 | 0.0 | 0.0 | 0.00 | 0.60 | 0.00 | 93 | 1010.5 |
| 20260509094009 | 55 | 233 | 0.0 | 0.0 | 0.00 | 0.60 | 0.00 | 93 | 1010.5 |
| 20260509093507 | 55 | 233 | 0.0 | 0.0 | 0.00 | 0.60 | 0.00 | 93 | 1010.5 |
| 20260509093009 | 55 | 232 | 0.0 | 0.0 | 0.00 | 0.60 | 0.00 | 93 | 1010.4 |
| 20260509092508 | 55 | 233 | 0.0 | 0.0 | 0.00 | 0.60 | 0.00 | 93 | 1010.4 |
| 20260509092007 | 55 | 233 | 0.0 | 0.0 | 0.00 | 0.60 | 0.00 | 93 | 1010.3 |
| 20260509091507 | 55 | 232 | 0.0 | 0.0 | 0.00 | 0.60 | 0.00 | 93 | 1010.4 |
| 20260509091014 | 55 | 233 | 0.0 | 0.0 | 0.00 | 0.60 | 0.00 | 93 | 1010.4 |
| 20260509090504 | 56 | 233 | 0.0 | 0.0 | 0.00 | 0.60 | 0.00 | 93 | 1010.4 |
| 20260509090024 | 56 | 233 | 0.0 | 0.0 | 0.00 | 0.60 | 0.00 | 93 | 1010.5 |
| 20260509085503 | 56 | 233 | 0.0 | 0.0 | 0.00 | 0.60 | 0.00 | 93 | 1010.6 |
| 20260509085003 | 56 | 233 | 0.0 | 0.0 | 0.00 | 0.60 | 0.00 | 93 | 1010.5 |
| 20260509084523 | 56 | 233 | 0.0 | 0.0 | 0.00 | 0.60 | 0.00 | 93 | 1010.5 |
| 20260509084009 | 56 | 233 | 0.0 | 0.0 | 0.00 | 0.60 | 0.00 | 93 | 1010.6 |
| 20260509083503 | 56 | 233 | 0.0 | 0.0 | 0.00 | 0.60 | 0.00 | 93 | 1010.6 |
| 20260509083017 | 56 | 233 | 0.0 | 0.0 | 0.00 | 0.60 | 0.00 | 93 | 1010.6 |
| 20260509082504 | 56 | 233 | 0.0 | 0.0 | 0.00 | 0.60 | 0.00 | 93 | 1010.6 |
| 20260509082010 | 56 | 233 | 0.0 | 0.0 | 0.00 | 0.60 | 0.00 | 93 | 1010.7 |
| 20260509081516 | 56 | 233 | 0.0 | 0.0 | 0.00 | 0.60 | 0.00 | 93 | 1010.7 |
| 20260509081007 | 56 | 233 | 0.0 | 0.0 | 0.00 | 0.60 | 0.00 | 93 | 1010.7 |
| 20260509080513 | 56 | 233 | 0.0 | 0.0 | 0.00 | 0.60 | 0.00 | 93 | 1010.6 |
| 20260509080015 | 57 | 233 | 0.0 | 0.0 | 0.00 | 0.60 | 0.00 | 92 | 1010.7 |
| 20260509075504 | 57 | 233 | 0.0 | 0.0 | 0.00 | 0.60 | 0.00 | 92 | 1010.7 |
| 20260509075008 | 57 | 232 | 0.0 | 0.0 | 0.00 | 0.60 | 0.00 | 92 | 1010.7 |
| 20260509074510 | 57 | 233 | 0.0 | 0.0 | 0.00 | 0.60 | 0.00 | 92 | 1010.7 |
| 20260509074008 | 57 | 233 | 0.0 | 0.0 | 0.00 | 0.60 | 0.00 | 92 | 1010.8 |
| 20260509073507 | 57 | 233 | 0.0 | 0.0 | 0.00 | 0.60 | 0.00 | 92 | 1010.9 |
| 20260509073006 | 57 | 233 | 0.0 | 0.0 | 0.00 | 0.60 | 0.00 | 92 | 1010.9 |
| 20260509072510 | 57 | 233 | 0.0 | 0.0 | 0.00 | 0.60 | 0.00 | 92 | 1011.0 |
| 20260509072009 | 57 | 233 | 0.0 | 0.0 | 0.00 | 0.60 | 0.00 | 92 | 1011.0 |
| 20260509071524 | 57 | 233 | 0.0 | 0.0 | 0.00 | 0.60 | 0.00 | 92 | 1011.1 |
| 20260509071006 | 57 | 233 | 0.0 | 0.0 | 0.00 | 0.60 | 0.00 | 92 | 1011.2 |
| 20260509070503 | 57 | 233 | 0.0 | 0.0 | 0.00 | 0.60 | 0.00 | 92 | 1011.2 |
| 20260509070026 | 57 | 233 | 0.0 | 0.0 | 0.00 | 0.60 | 0.00 | 92 | 1011.3 |
| 20260509065507 | 58 | 233 | 0.0 | 0.0 | 0.00 | 0.60 | 0.00 | 92 | 1011.4 |
| 20260509065004 | 58 | 233 | 0.0 | 0.0 | 0.00 | 0.60 | 0.00 | 92 | 1011.5 |
| 20260509064524 | 58 | 233 | 0.0 | 0.0 | 0.00 | 0.60 | 0.00 | 92 | 1011.4 |
| 20260509064009 | 58 | 233 | 0.0 | 0.0 | 0.00 | 0.60 | 0.00 | 92 | 1011.3 |
| 20260509063511 | 58 | 233 | 0.0 | 0.0 | 0.00 | 0.60 | 0.00 | 92 | 1011.4 |
| 20260509063023 | 58 | 233 | 0.0 | 0.0 | 0.00 | 0.60 | 0.00 | 92 | 1011.4 |
| 20260509062508 | 58 | 232 | 0.0 | 0.0 | 0.00 | 0.60 | 0.00 | 92 | 1011.5 |
| 20260509062009 | 58 | 233 | 0.0 | 0.0 | 0.00 | 0.60 | 0.00 | 92 | 1011.3 |
| 20260509061519 | 58 | 233 | 0.0 | 0.0 | 0.00 | 0.60 | 0.00 | 92 | 1011.3 |
| 20260509061004 | 58 | 233 | 0.0 | 0.0 | 0.00 | 0.60 | 0.00 | 92 | 1011.4 |
| 20260509060509 | 58 | 233 | 0.0 | 0.0 | 0.00 | 0.60 | 0.00 | 92 | 1011.4 |
| 20260509060013 | 58 | 233 | 0.0 | 0.0 | 0.00 | 0.60 | 0.00 | 92 | 1011.3 |
| 20260509055510 | 58 | 232 | 0.0 | 0.0 | 0.00 | 0.60 | 0.00 | 92 | 1011.4 |
| 20260509055013 | 58 | 232 | 0.0 | 0.0 | 0.00 | 0.60 | 0.00 | 92 | 1011.3 |
| 20260509054512 | 59 | 233 | 0.0 | 0.0 | 0.00 | 0.60 | 0.00 | 92 | 1011.2 |
| 20260509054011 | 59 | 233 | 0.0 | 0.0 | 0.00 | 0.60 | 0.00 | 92 | 1011.0 |
| 20260509053507 | 59 | 233 | 0.0 | 0.0 | 0.00 | 0.60 | 0.00 | 92 | 1010.9 |
| 20260509053010 | 59 | 233 | 0.0 | 0.0 | 0.00 | 0.60 | 0.00 | 92 | 1011.0 |
| 20260509052508 | 59 | 233 | 0.0 | 0.0 | 0.00 | 0.60 | 0.00 | 92 | 1011.0 |
| 20260509052008 | 59 | 233 | 0.0 | 0.0 | 0.00 | 0.60 | 0.00 | 92 | 1011.1 |
| 20260509051527 | 59 | 233 | 0.0 | 0.0 | 0.00 | 0.60 | 0.00 | 92 | 1011.1 |
| 20260509051007 | 59 | 233 | 0.0 | 0.0 | 0.00 | 0.60 | 0.00 | 92 | 1011.2 |
| 20260509050507 | 59 | 233 | 0.0 | 0.0 | 0.00 | 0.60 | 0.00 | 92 | 1011.3 |
| 20260509050042 | 59 | 233 | 0.0 | 0.0 | 0.00 | 0.60 | 0.00 | 92 | 1011.4 |
| 20260509045507 | 60 | 233 | 0.0 | 2.0 | 0.00 | 0.60 | 0.60 | 92 | 1011.3 |
| 20260509045003 | 60 | 233 | 0.0 | 2.0 | 0.00 | 0.60 | 0.60 | 92 | 1011.3 |
| 20260509044524 | 60 | 233 | 0.0 | 2.0 | 0.00 | 0.60 | 0.60 | 92 | 1011.3 |
| 20260509043510 | 60 | 232 | 0.0 | 2.0 | 0.01 | 0.60 | 0.60 | 92 | 1011.2 |
| 20260509043021 | 60 | 239 | 0.0 | 3.0 | 0.01 | 0.60 | 0.60 | 92 | 1011.2 |
| 20260509042507 | 60 | 240 | 0.0 | 3.0 | 0.01 | 0.60 | 0.60 | 92 | 1011.2 |
| 20260509042017 | 60 | 204 | 0.0 | 3.0 | 0.01 | 0.60 | 0.60 | 92 | 1011.3 |
| 20260509041519 | 60 | 174 | 1.0 | 3.0 | 0.01 | 0.60 | 0.60 | 92 | 1011.2 |
| 20260509041004 | 60 | 173 | 0.0 | 2.0 | 0.01 | 0.60 | 0.60 | 91 | 1011.3 |
| 20260509040507 | 60 | 173 | 0.0 | 2.0 | 0.01 | 0.60 | 0.60 | 91 | 1011.2 |
| 20260509040017 | 60 | 173 | 0.0 | 2.0 | 0.01 | 0.60 | 0.60 | 91 | 1011.2 |
| 20260509035513 | 60 | 173 | 0.0 | 2.0 | 0.01 | 0.60 | 0.60 | 91 | 1011.1 |
| 20260509035008 | 60 | 173 | 0.0 | 2.0 | 0.01 | 0.60 | 0.60 | 91 | 1011.1 |
| 20260509034514 | 61 | 173 | 0.0 | 2.0 | 0.01 | 0.60 | 0.60 | 91 | 1011.0 |
| 20260509034010 | 61 | 173 | 0.0 | 2.0 | 0.01 | 0.60 | 0.60 | 91 | 1011.0 |
| 20260509033507 | 61 | 173 | 0.0 | 5.0 | 0.00 | 0.58 | 0.58 | 91 | 1011.0 |
| 20260509033012 | 61 | 173 | 2.0 | 5.0 | 0.00 | 0.58 | 0.58 | 91 | 1011.0 |
| 20260509032508 | 61 | 181 | 1.0 | 3.0 | 0.00 | 0.58 | 0.58 | 91 | 1010.9 |
| 20260509032010 | 61 | 156 | 2.0 | 4.0 | 0.00 | 0.58 | 0.58 | 91 | 1010.7 |
| 20260509031532 | 61 | 156 | 1.0 | 4.0 | 0.00 | 0.58 | 0.58 | 91 | 1010.8 |
| 20260509031009 | 61 | 152 | 1.0 | 4.0 | 0.00 | 0.58 | 0.58 | 91 | 1010.8 |
| 20260509030508 | 61 | 191 | 2.0 | 3.0 | 0.00 | 0.58 | 0.58 | 91 | 1010.9 |
| 20260509030033 | 61 | 181 | 1.0 | 3.0 | 0.00 | 0.58 | 0.58 | 91 | 1010.9 |
| 20260509025510 | 61 | 177 | 1.0 | 6.0 | 0.00 | 0.58 | 0.58 | 91 | 1010.7 |
| 20260509025007 | 62 | 163 | 2.0 | 7.0 | 0.00 | 0.58 | 0.58 | 91 | 1010.6 |
| 20260509024535 | 62 | 162 | 2.0 | 7.0 | 0.00 | 0.58 | 0.58 | 91 | 1010.4 |
| 20260509024011 | 62 | 175 | 2.0 | 5.0 | 0.00 | 0.58 | 0.58 | 91 | 1010.3 |
| 20260509023509 | 62 | 156 | 2.0 | 5.0 | 0.00 | 0.58 | 0.58 | 91 | 1010.3 |
| 20260509023032 | 62 | 137 | 2.0 | 5.0 | 0.00 | 0.58 | 0.58 | 91 | 1010.0 |
| 20260509022510 | 62 | 159 | 2.0 | 6.0 | 0.00 | 0.58 | 0.58 | 91 | 1009.9 |
| 20260509022011 | 62 | 171 | 2.0 | 6.0 | 0.00 | 0.58 | 0.58 | 91 | 1009.9 |
| 20260509021522 | 62 | 115 | 3.0 | 6.0 | 0.00 | 0.58 | 0.58 | 91 | 1009.7 |
| 20260509021007 | 62 | 127 | 2.0 | 7.0 | 0.00 | 0.58 | 0.58 | 91 | 1009.5 |
| 20260509020507 | 62 | 160 | 3.0 | 7.0 | 0.00 | 0.58 | 0.58 | 91 | 1009.5 |
| 20260509020021 | 62 | 158 | 3.0 | 8.0 | 0.00 | 0.58 | 0.58 | 91 | 1009.3 |
| 20260509015510 | 62 | 141 | 2.0 | 8.0 | 0.00 | 0.58 | 0.58 | 91 | 1009.1 |
| 20260509015013 | 62 | 117 | 2.0 | 6.0 | 0.00 | 0.58 | 0.58 | 91 | 1009.1 |
| 20260509014520 | 62 | 203 | 2.0 | 6.0 | 0.00 | 0.58 | 0.58 | 91 | 1008.9 |
| 20260509014009 | 63 | 106 | 2.0 | 7.0 | 0.09 | 0.58 | 0.58 | 91 | 1008.7 |
| 20260509013508 | 63 | 162 | 3.0 | 7.0 | 0.15 | 0.58 | 0.58 | 91 | 1009.1 |
| 20260509013039 | 62 | 152 | 1.0 | 4.0 | 0.15 | 0.58 | 0.58 | 90 | 1009.0 |
| 20260509012511 | 62 | 113 | 0.0 | 9.0 | 0.15 | 0.58 | 0.58 | 90 | 1008.4 |
| 20260509012009 | 62 | 126 | 3.0 | 10.0 | 0.16 | 0.58 | 0.58 | 90 | 1008.5 |
| 20260509011529 | 62 | 100 | 5.0 | 10.0 | 0.17 | 0.58 | 0.58 | 90 | 1008.5 |
| 20260509011012 | 62 | 91 | 3.0 | 7.0 | 0.19 | 0.58 | 0.58 | 90 | 1008.5 |
| 20260509010507 | 62 | 83 | 3.0 | 8.0 | 0.25 | 0.58 | 0.58 | 90 | 1008.7 |
| 20260509010028 | 63 | 112 | 2.0 | 11.0 | 0.46 | 0.58 | 0.58 | 90 | 1008.9 |
| 20260509005507 | 63 | 135 | 2.0 | 11.0 | 0.49 | 0.58 | 0.58 | 90 | 1008.9 |
| 20260509005010 | 63 | 130 | 4.0 | 10.0 | 0.49 | 0.58 | 0.58 | 90 | 1009.0 |
| 20260509004533 | 63 | 129 | 5.0 | 8.0 | 0.54 | 0.58 | 0.58 | 90 | 1008.9 |
| 20260509004009 | 62 | 119 | 3.0 | 9.0 | 0.50 | 0.50 | 0.50 | 89 | 1009.3 |
| 20260509003513 | 62 | 48 | 2.0 | 12.0 | 0.44 | 0.44 | 0.44 | 89 | 1009.2 |
| 20260509003005 | 62 | 83 | 5.0 | 16.0 | 0.44 | 0.44 | 0.44 | 88 | 1008.5 |
| 20260509002502 | 62 | 36 | 5.0 | 16.0 | 0.44 | 0.44 | 0.44 | 88 | 1008.2 |
| 20260509002003 | 61 | 35 | 7.0 | 13.0 | 0.43 | 0.43 | 0.43 | 88 | 1008.7 |
| 20260509001506 | 61 | 6 | 4.0 | 7.0 | 0.42 | 0.42 | 0.42 | 86 | 1009.2 |
| 20260509001002 | 61 | 33 | 2.0 | 17.0 | 0.40 | 0.40 | 0.40 | 86 | 1009.7 |
| 20260509000504 | 62 | 16 | 4.0 | 17.0 | 0.33 | 0.33 | 0.33 | 85 | 1009.5 |
| 20260509000004 | 62 | 38 | 10.0 | 16.0 | 0.13 | 0.13 | 0.13 | 83 | 1008.8 |
| 20260508235507 | 64 | 12 | 9.0 | 26.0 | 0.10 | 0.10 | 0.10 | 80 | 1009.0 |
| 20260508235004 | 66 | 30 | 11.0 | 26.0 | 0.10 | 0.10 | 0.10 | 76 | 1009.0 |
| 20260508234507 | 70 | 10 | 8.0 | 20.0 | 0.05 | 0.05 | 0.05 | 69 | 1009.9 |
| 20260508234004 | 71 | 6 | 4.0 | 13.0 | 0.00 | 0.00 | 0.00 | 63 | 1008.5 |
| 20260508233505 | 72 | 39 | 6.0 | 13.0 | 0.00 | 0.00 | 0.00 | 58 | 1007.9 |
| 20260508233002 | 74 | 27 | 6.0 | 21.0 | 0.00 | 0.00 | 0.00 | 50 | 1007.5 |
| 20260508232504 | 78 | 42 | 8.0 | 21.0 | 0.00 | 0.00 | 0.00 | 50 | 1007.8 |
| 20260508232004 | 79 | 338 | 0.0 | 8.0 | 0.00 | 0.00 | 0.00 | 52 | 1007.5 |
| 20260508231516 | 80 | 199 | 0.0 | 8.0 | 0.00 | 0.00 | 0.00 | 52 | 1007.3 |
| 20260508231005 | 80 | 192 | 2.0 | 8.0 | 0.00 | 0.00 | 0.00 | 52 | 1006.8 |
| 20260508230503 | 80 | 202 | 3.0 | 9.0 | 0.00 | 0.00 | 0.00 | 51 | 1006.5 |
| 20260508230030 | 80 | 250 | 3.0 | 9.0 | 0.00 | 0.00 | 0.00 | 50 | 1006.4 |
| 20260508225505 | 80 | 148 | 3.0 | 11.0 | 0.00 | 0.00 | 0.00 | 50 | 1006.4 |
| 20260508225013 | 81 | 223 | 5.0 | 12.0 | 0.00 | 0.00 | 0.00 | 49 | 1006.3 |
| 20260508224511 | 81 | 227 | 5.0 | 12.0 | 0.00 | 0.00 | 0.00 | 49 | 1006.4 |
| 20260508224005 | 81 | 171 | 2.0 | 12.0 | 0.00 | 0.00 | 0.00 | 49 | 1006.4 |
| 20260508223508 | 81 | 139 | 5.0 | 13.0 | 0.00 | 0.00 | 0.00 | 48 | 1006.4 |
| 20260508223033 | 82 | 156 | 7.0 | 13.0 | 0.00 | 0.00 | 0.00 | 47 | 1006.5 |
| 20260508222504 | 83 | 153 | 3.0 | 11.0 | 0.00 | 0.00 | 0.00 | 47 | 1006.6 |
| 20260508222008 | 83 | 161 | 6.0 | 10.0 | 0.00 | 0.00 | 0.00 | 46 | 1006.6 |
| 20260508221520 | 83 | 158 | 4.0 | 10.0 | 0.00 | 0.00 | 0.00 | 47 | 1006.6 |
| 20260508221008 | 83 | 158 | 4.0 | 10.0 | 0.00 | 0.00 | 0.00 | 45 | 1006.6 |
| 20260508220510 | 83 | 189 | 6.0 | 13.0 | 0.00 | 0.00 | 0.00 | 45 | 1006.6 |
| 20260508220034 | 84 | 171 | 4.0 | 13.0 | 0.00 | 0.00 | 0.00 | 46 | 1006.7 |
| 20260508215511 | 83 | 237 | 1.0 | 11.0 | 0.00 | 0.00 | 0.00 | 46 | 1006.8 |
| 20260508215009 | 83 | 154 | 5.0 | 12.0 | 0.00 | 0.00 | 0.00 | 46 | 1006.9 |
| 20260508214524 | 83 | 173 | 4.0 | 12.0 | 0.00 | 0.00 | 0.00 | 46 | 1007.1 |
| 20260508214005 | 83 | 169 | 5.0 | 11.0 | 0.00 | 0.00 | 0.00 | 46 | 1007.1 |
| 20260508213504 | 83 | 171 | 3.0 | 12.0 | 0.00 | 0.00 | 0.00 | 46 | 1007.2 |
| 20260508213042 | 83 | 178 | 6.0 | 12.0 | 0.00 | 0.00 | 0.00 | 45 | 1007.4 |
| 20260508212505 | 82 | 198 | 3.0 | 10.0 | 0.00 | 0.00 | 0.00 | 46 | 1007.5 |
| 20260508212008 | 82 | 211 | 3.0 | 11.0 | 0.00 | 0.00 | 0.00 | 45 | 1007.7 |
| 20260508211518 | 82 | 156 | 4.0 | 12.0 | 0.00 | 0.00 | 0.00 | 46 | 1007.7 |
| 20260508211005 | 81 | 175 | 3.0 | 15.0 | 0.00 | 0.00 | 0.00 | 47 | 1007.8 |
| 20260508210504 | 82 | 153 | 4.0 | 15.0 | 0.00 | 0.00 | 0.00 | 45 | 1007.9 |
| 20260508210016 | 81 | 219 | 7.0 | 12.0 | 0.00 | 0.00 | 0.00 | 47 | 1008.0 |
| 20260508205506 | 81 | 177 | 6.0 | 12.0 | 0.00 | 0.00 | 0.00 | 46 | 1008.1 |
| 20260508205009 | 82 | 252 | 3.0 | 12.0 | 0.00 | 0.00 | 0.00 | 46 | 1008.1 |
| 20260508204512 | 82 | 185 | 4.0 | 12.0 | 0.00 | 0.00 | 0.00 | 45 | 1008.1 |
| 20260508204005 | 82 | 171 | 5.0 | 13.0 | 0.00 | 0.00 | 0.00 | 45 | 1008.2 |